CES552 EGLL-ZSPD

Flight info

Callsign CES552
Flight time N/A
Altitude 33000
Route BPK Q295 SOMVA DCT MAVAS DCT SPY N873 ANDIK DCT KUBAT DCT DOSUR DCT TALSA DCT TUKMA P989 MEGAS/K0895F330 P989 OBIBA P997 AKUGI T635 OKBOS/K0891F350 T635 SUNAD N155 UNISO L870 HMN B228 TODES R497 BD/K0891F370 R497 SERNA/K0883S1130 Y520 POLHO W33 NUVPU W52 MUDAM/K0889S1160 G212 SOTMU W98 ELKUR W40 DOXAB/K0889S1130 W40 YQG/K0887S1160 W142 DALIM/K0889S1130 A593 DPX A470 DALNU W166 ZJ W167 SASAN R343 EKIMU
Aircraft B77W/H-SDE1E2E3FGHIJ2J3J4J5M1RWXY/LB1D1

Departure

Time 2026-05-07 18:36
Airport London Heathrow Airport (EGLL)

Arrival

Time N/A
Airport Shanghai Pudong International Airport (ZSPD)
Time Latitude Longitude Altitude Speed Heading
2026-05-07 18:04 51.46021 -0.44881 91 ft 0 kts 131°
2026-05-07 18:14 51.46022 -0.44881 91 ft 1 kts 131°
2026-05-07 18:14 51.46038 -0.44910 95 ft 4 kts 131°
2026-05-07 18:15 51.46054 -0.44940 94 ft 1 kts 131°
2026-05-07 18:15 51.46071 -0.44965 91 ft 4 kts 158°
2026-05-07 18:15 51.46093 -0.44966 92 ft 4 kts 219°
2026-05-07 18:15 51.46112 -0.44939 94 ft 4 kts 221°
2026-05-07 18:16 51.46121 -0.44926 94 ft 0 kts 221°
2026-05-07 18:19 51.46108 -0.44945 94 ft 7 kts 221°
2026-05-07 18:20 51.46041 -0.45041 95 ft 15 kts 221°
2026-05-07 18:20 51.45989 -0.45115 93 ft 3 kts 221°
2026-05-07 18:20 51.45976 -0.45152 94 ft 7 kts 256°
2026-05-07 18:20 51.46019 -0.45273 93 ft 15 kts 311°
2026-05-07 18:21 51.46109 -0.45364 95 ft 15 kts 326°
2026-05-07 18:21 51.46198 -0.45460 96 ft 15 kts 325°
2026-05-07 18:21 51.46285 -0.45556 94 ft 13 kts 325°
2026-05-07 18:21 51.46322 -0.45687 92 ft 13 kts 275°
2026-05-07 18:22 51.46324 -0.45836 91 ft 13 kts 270°
2026-05-07 18:22 51.46324 -0.45935 91 ft 13 kts 270°
2026-05-07 18:22 51.46323 -0.46084 91 ft 0 kts 270°
2026-05-07 18:23 51.46323 -0.46085 91 ft 0 kts 270°
2026-05-07 18:23 51.46323 -0.46089 91 ft 0 kts 270°
2026-05-07 18:29 51.46323 -0.46090 91 ft 1 kts 270°
2026-05-07 18:29 51.46323 -0.46143 91 ft 8 kts 270°
2026-05-07 18:29 51.46323 -0.46240 91 ft 9 kts 269°
2026-05-07 18:29 51.46322 -0.46337 91 ft 9 kts 270°
2026-05-07 18:30 51.46322 -0.46434 92 ft 9 kts 269°
2026-05-07 18:30 51.46322 -0.46533 91 ft 10 kts 270°
2026-05-07 18:30 51.46322 -0.46689 91 ft 15 kts 271°
2026-05-07 18:30 51.46322 -0.46859 91 ft 15 kts 269°
2026-05-07 18:31 51.46322 -0.47030 91 ft 15 kts 270°
2026-05-07 18:31 51.46321 -0.47200 91 ft 15 kts 270°
2026-05-07 18:31 51.46329 -0.47367 96 ft 15 kts 285°
2026-05-07 18:31 51.46339 -0.47538 94 ft 15 kts 269°
2026-05-07 18:32 51.46312 -0.47702 96 ft 15 kts 240°
2026-05-07 18:32 51.46259 -0.47852 96 ft 16 kts 245°
2026-05-07 18:32 51.46251 -0.48025 94 ft 16 kts 270°
2026-05-07 18:32 51.46251 -0.48204 90 ft 18 kts 269°
2026-05-07 18:33 51.46250 -0.48432 90 ft 22 kts 270°
2026-05-07 18:33 51.46259 -0.48614 94 ft 15 kts 288°
2026-05-07 18:33 51.46278 -0.48667 94 ft 0 kts 311°
2026-05-07 18:33 51.46279 -0.48669 94 ft 2 kts 311°
2026-05-07 18:34 51.46318 -0.48723 94 ft 10 kts 325°
2026-05-07 18:34 51.46387 -0.48749 93 ft 10 kts 357°
2026-05-07 18:34 51.46463 -0.48728 96 ft 13 kts 39°
2026-05-07 18:34 51.46479 -0.48594 91 ft 14 kts 89°
2026-05-07 18:35 51.46480 -0.48193 93 ft 69 kts 90°
2026-05-07 18:35 51.46482 -0.47030 95 ft 137 kts 90°
2026-05-07 18:35 51.46486 -0.45187 97 ft 190 kts 90°
2026-05-07 18:35 51.46507 -0.42967 451 ft 202 kts 91°
2026-05-07 18:36 51.46554 -0.40816 1352 ft 189 kts 80°
2026-05-07 18:36 51.47220 -0.38912 1607 ft 208 kts 41°
2026-05-07 18:36 51.48268 -0.37276 1910 ft 220 kts 53°
2026-05-07 18:36 51.49223 -0.35232 2159 ft 238 kts 53°
2026-05-07 18:37 51.50271 -0.33188 2756 ft 243 kts 51°
2026-05-07 18:37 51.51372 -0.31104 3404 ft 247 kts 50°
2026-05-07 18:37 51.52455 -0.28910 3889 ft 255 kts 61°
2026-05-07 18:37 51.53101 -0.26237 4425 ft 259 kts 73°
2026-05-07 18:38 51.53677 -0.23473 5107 ft 263 kts 71°
2026-05-07 18:38 51.54298 -0.20710 5777 ft 263 kts 65°
2026-05-07 18:38 51.55413 -0.18386 6074 ft 270 kts 35°
2026-05-07 18:38 51.57175 -0.17363 6069 ft 273 kts
2026-05-07 18:39 51.59032 -0.17876 6085 ft 272 kts 341°
2026-05-07 18:39 51.60857 -0.18371 6136 ft 266 kts 10°
2026-05-07 18:39 51.62545 -0.17293 6467 ft 269 kts 28°
2026-05-07 18:39 51.64275 -0.15979 6420 ft 278 kts 21°
2026-05-07 18:40 51.66071 -0.14941 6616 ft 270 kts 18°
2026-05-07 18:40 51.67858 -0.14022 6933 ft 271 kts 17°
2026-05-07 18:40 51.69693 -0.13145 7284 ft 278 kts 16°
2026-05-07 18:40 51.71564 -0.12277 7619 ft 282 kts 15°
2026-05-07 18:41 51.73407 -0.11239 7906 ft 281 kts 31°
2026-05-07 18:41 51.74796 -0.09060 8234 ft 281 kts 62°
2026-05-07 18:41 51.75428 -0.06106 8597 ft 280 kts 82°
2026-05-07 18:41 51.75693 -0.02946 8979 ft 288 kts 83°
2026-05-07 18:42 51.75944 0.00245 9319 ft 293 kts 84°
2026-05-07 18:42 51.76199 0.03514 9668 ft 294 kts 85°
2026-05-07 18:42 51.76459 0.06803 10010 ft 296 kts 84°
2026-05-07 18:42 51.76723 0.10103 10337 ft 297 kts 84°
2026-05-07 18:43 51.76992 0.13418 10648 ft 298 kts 84°
2026-05-07 18:43 51.77262 0.16755 10914 ft 306 kts 84°
2026-05-07 18:43 51.77545 0.20288 11093 ft 328 kts 84°
2026-05-07 18:43 51.77833 0.24058 11274 ft 349 kts 85°
2026-05-07 18:44 51.78136 0.28015 11459 ft 371 kts 84°
2026-05-07 18:44 51.78472 0.32207 11984 ft 381 kts 84°
2026-05-07 18:44 51.78820 0.36484 12716 ft 387 kts 84°
2026-05-07 18:44 51.79171 0.40815 13505 ft 392 kts 84°
2026-05-07 18:45 51.79523 0.45197 14271 ft 395 kts 84°
2026-05-07 18:45 51.79877 0.49633 14959 ft 400 kts 84°
2026-05-07 18:45 51.80233 0.54121 15615 ft 406 kts 84°
2026-05-07 18:45 51.80590 0.58667 16317 ft 410 kts 84°
2026-05-07 18:46 51.81023 0.63183 16985 ft 416 kts 79°
2026-05-07 18:46 51.81770 0.67721 17706 ft 420 kts 72°
2026-05-07 18:46 51.82838 0.72137 18388 ft 424 kts 67°
2026-05-07 18:46 51.84038 0.76532 18968 ft 429 kts 66°
2026-05-07 18:47 51.85238 0.80973 19561 ft 433 kts 67°
2026-05-07 18:47 51.86425 0.85470 20173 ft 437 kts 67°
2026-05-07 18:47 51.87607 0.90022 20773 ft 440 kts 68°
2026-05-07 18:47 51.88786 0.94619 21330 ft 445 kts 68°
2026-05-07 18:48 51.89974 0.99270 21899 ft 449 kts 68°
2026-05-07 18:48 51.91128 1.03802 22462 ft 452 kts 68°
2026-05-07 18:48 51.92315 1.08464 23020 ft 456 kts 68°
2026-05-07 18:48 51.93529 1.13240 23535 ft 460 kts 68°
2026-05-07 18:49 51.94752 1.18055 23997 ft 464 kts 68°
2026-05-07 18:49 51.95985 1.22918 24457 ft 467 kts 68°
2026-05-07 18:49 51.97222 1.27805 24904 ft 470 kts 68°
2026-05-07 18:49 51.98466 1.32732 25372 ft 473 kts 68°
2026-05-07 18:50 51.99713 1.37683 25792 ft 476 kts 68°
2026-05-07 18:50 52.00967 1.42671 26210 ft 479 kts 68°
2026-05-07 18:50 52.02209 1.47624 26623 ft 482 kts 68°
2026-05-07 18:50 52.03475 1.52683 27059 ft 485 kts 68°
2026-05-07 18:51 52.04744 1.57761 27553 ft 486 kts 68°
2026-05-07 18:51 52.06012 1.62855 27969 ft 488 kts 68°
2026-05-07 18:51 52.07288 1.67987 28326 ft 491 kts 68°
2026-05-07 18:51 52.08569 1.73157 28654 ft 494 kts 68°
2026-05-07 18:52 52.09856 1.78361 28985 ft 497 kts 68°
2026-05-07 18:52 52.11147 1.83591 29312 ft 499 kts 68°
2026-05-07 18:52 52.12424 1.88780 29626 ft 502 kts 68°
2026-05-07 18:52 52.13721 1.94060 29988 ft 503 kts 68°
2026-05-07 18:53 52.15014 1.99337 30382 ft 502 kts 68°
2026-05-07 18:53 52.16259 2.04432 30769 ft 500 kts 68°
2026-05-07 18:53 52.17542 2.09691 31145 ft 499 kts 69°
2026-05-07 18:53 52.18820 2.14945 31462 ft 499 kts 69°
2026-05-07 18:54 52.20096 2.20202 31792 ft 499 kts 69°
2026-05-07 18:54 52.21369 2.25460 32107 ft 498 kts 69°
2026-05-07 18:54 52.22639 2.30721 32446 ft 498 kts 69°
2026-05-07 18:54 52.24000 2.35907 32746 ft 498 kts 64°
2026-05-07 18:55 52.25665 2.40851 33002 ft 498 kts 57°
2026-05-07 18:55 52.29645 2.50037 33079 ft 497 kts 54°
2026-05-07 18:56 52.33681 2.59130 33086 ft 491 kts 54°
2026-05-07 18:56 52.37656 2.68214 33103 ft 491 kts 54°
2026-05-07 18:57 52.41607 2.77350 33101 ft 492 kts 55°
2026-05-07 18:57 52.45548 2.86518 33101 ft 493 kts 55°
2026-05-07 18:58 52.49465 2.95659 33110 ft 493 kts 55°
2026-05-07 18:58 52.53334 3.04718 33087 ft 492 kts 56°
2026-05-07 18:59 52.57250 3.13919 33104 ft 491 kts 56°
2026-05-07 18:59 52.61148 3.23109 33106 ft 489 kts 56°
2026-05-07 19:00 52.65034 3.32303 33111 ft 489 kts 56°
2026-05-07 19:00 52.68881 3.41439 33114 ft 489 kts 56°
2026-05-07 19:01 52.72747 3.50654 33124 ft 488 kts 56°
2026-05-07 19:01 52.76601 3.59871 33101 ft 487 kts 56°
2026-05-07 19:02 52.80431 3.69065 33105 ft 485 kts 56°
2026-05-07 19:02 52.84250 3.78255 33105 ft 484 kts 56°
2026-05-07 19:03 52.88110 3.87285 33106 ft 484 kts 55°
2026-05-07 19:03 52.92027 3.96361 33110 ft 484 kts 55°
2026-05-07 19:04 52.95863 4.05309 33113 ft 483 kts 56°
2026-05-07 19:04 52.99731 4.14396 33107 ft 481 kts 56°
2026-05-07 19:05 53.03567 4.23453 33110 ft 479 kts 56°
2026-05-07 19:05 53.07361 4.32445 33113 ft 478 kts 56°
2026-05-07 19:06 53.11166 4.41496 33117 ft 477 kts 56°
2026-05-07 19:06 53.16862 4.55101 33121 ft 478 kts 57°
2026-05-07 19:07 53.20644 4.64174 33118 ft 476 kts 57°
2026-05-07 19:07 53.24377 4.73162 33099 ft 473 kts 57°
2026-05-07 19:08 53.28112 4.82188 33099 ft 471 kts 57°
2026-05-07 19:08 53.31827 4.91196 33102 ft 470 kts 57°
2026-05-07 19:09 53.35499 5.00133 33106 ft 470 kts 57°
2026-05-07 19:09 53.39170 5.09100 33111 ft 471 kts 57°
2026-05-07 19:10 53.42847 5.18111 33109 ft 471 kts 57°
2026-05-07 19:10 53.46542 5.27203 33136 ft 472 kts 57°
2026-05-07 19:11 53.50239 5.36329 33131 ft 473 kts 57°
2026-05-07 19:11 53.53933 5.45482 33123 ft 473 kts 57°
2026-05-07 19:12 53.57597 5.54591 33125 ft 474 kts 57°
2026-05-07 19:12 53.61278 5.63778 33118 ft 473 kts 58°
2026-05-07 19:13 53.64943 5.72958 33107 ft 471 kts 57°
2026-05-07 19:13 53.68584 5.82111 33113 ft 468 kts 58°
2026-05-07 19:14 53.72174 5.91170 33115 ft 467 kts 58°
2026-05-07 19:14 53.75733 6.00183 33117 ft 466 kts 58°
2026-05-07 19:15 53.79300 6.09249 33124 ft 466 kts 58°
2026-05-07 19:15 53.82881 6.18385 33124 ft 466 kts 58°
2026-05-07 19:16 53.86460 6.27547 33129 ft 466 kts 58°
2026-05-07 19:16 53.90027 6.36712 33119 ft 466 kts 58°
2026-05-07 19:17 53.93560 6.45823 33125 ft 465 kts 58°
2026-05-07 19:17 53.97104 6.54994 33124 ft 464 kts 58°
2026-05-07 19:18 54.00635 6.64169 33127 ft 464 kts 58°
2026-05-07 19:18 54.04162 6.73365 33128 ft 464 kts 58°
2026-05-07 19:19 54.07678 6.82567 33140 ft 463 kts 58°
2026-05-07 19:19 54.11161 6.91717 33121 ft 463 kts 58°
2026-05-07 19:20 54.14600 7.00782 33118 ft 462 kts 58°
2026-05-07 19:20 54.18084 7.10000 33119 ft 462 kts 58°
2026-05-07 19:21 54.21558 7.19225 33124 ft 462 kts 58°
2026-05-07 19:21 54.25000 7.28402 33144 ft 461 kts 59°
2026-05-07 19:22 54.28459 7.37656 33116 ft 462 kts 58°
2026-05-07 19:22 54.31914 7.46937 33142 ft 463 kts 58°
2026-05-07 19:23 54.35370 7.56251 33117 ft 463 kts 58°
2026-05-07 19:23 54.38795 7.65519 33128 ft 463 kts 58°
2026-05-07 19:24 54.42239 7.74872 33142 ft 463 kts 59°
2026-05-07 19:24 54.45674 7.84239 33136 ft 463 kts 59°
2026-05-07 19:25 54.49100 7.93613 33120 ft 463 kts 59°
2026-05-07 19:25 54.52466 8.02861 33136 ft 464 kts 59°
2026-05-07 19:26 54.55863 8.12228 33139 ft 464 kts 58°
2026-05-07 19:26 54.59278 8.21680 33130 ft 465 kts 59°
2026-05-07 19:27 54.62690 8.31159 33130 ft 465 kts 59°
2026-05-07 19:27 54.66093 8.40652 33133 ft 465 kts 59°
2026-05-07 19:28 54.69488 8.50157 33128 ft 465 kts 59°
2026-05-07 19:28 54.72855 8.59620 33131 ft 465 kts 59°
2026-05-07 19:29 54.76240 8.69174 33142 ft 466 kts 59°
2026-05-07 19:29 54.79621 8.78753 33137 ft 466 kts 59°
2026-05-07 19:30 54.83001 8.88362 33140 ft 466 kts 59°
2026-05-07 19:30 54.86346 8.97913 33143 ft 466 kts 59°
2026-05-07 19:31 54.89651 9.07387 33142 ft 466 kts 59°
2026-05-07 19:31 54.93005 9.17036 33138 ft 466 kts 59°
2026-05-07 19:32 54.96350 9.26701 33143 ft 467 kts 59°
2026-05-07 19:32 54.99693 9.36396 33148 ft 467 kts 59°
2026-05-07 19:33 55.03001 9.46030 33150 ft 467 kts 59°
2026-05-07 19:33 55.06330 9.55762 33154 ft 467 kts 59°
2026-05-07 19:34 55.09651 9.65505 33155 ft 467 kts 59°
2026-05-07 19:34 55.12877 9.75345 33157 ft 467 kts 62°
2026-05-07 19:35 55.15872 9.85334 33155 ft 467 kts 62°
2026-05-07 19:35 55.18862 9.95435 33158 ft 468 kts 62°
2026-05-07 19:36 55.21822 10.05360 33151 ft 468 kts 62°
2026-05-07 19:36 55.24844 10.15464 33144 ft 468 kts 62°
2026-05-07 19:37 55.27859 10.25568 33142 ft 468 kts 62°
2026-05-07 19:37 55.30845 10.35618 33158 ft 468 kts 62°
2026-05-07 19:38 55.33843 10.45755 33156 ft 467 kts 62°
2026-05-07 19:38 55.36830 10.55902 33148 ft 468 kts 62°
2026-05-07 19:39 55.39816 10.66090 33156 ft 469 kts 62°
2026-05-07 19:39 55.42797 10.76302 33153 ft 469 kts 62°
2026-05-07 19:40 55.45774 10.86548 33156 ft 470 kts 62°
2026-05-07 19:40 55.48723 10.96741 33145 ft 470 kts 63°
2026-05-07 19:41 55.51639 11.06863 33148 ft 470 kts 63°
2026-05-07 19:41 55.54592 11.17161 33147 ft 470 kts 63°
2026-05-07 19:42 55.57536 11.27472 33157 ft 469 kts 63°
2026-05-07 19:42 55.60445 11.37707 33149 ft 469 kts 63°
2026-05-07 19:43 55.63358 11.48001 33152 ft 468 kts 63°
2026-05-07 19:43 55.66261 11.58302 33153 ft 467 kts 63°
2026-05-07 19:44 55.69151 11.68608 33149 ft 467 kts 63°
2026-05-07 19:44 55.72033 11.78926 33156 ft 467 kts 63°
2026-05-07 19:45 55.74888 11.89198 33149 ft 468 kts 63°
2026-05-07 19:45 55.77759 11.99570 33162 ft 468 kts 63°
2026-05-07 19:46 55.80580 12.09811 33157 ft 469 kts 63°
2026-05-07 19:46 55.83442 12.20243 33155 ft 470 kts 63°
2026-05-07 19:47 55.86277 12.30629 33153 ft 470 kts 63°
2026-05-07 19:47 55.89126 12.41113 33153 ft 470 kts 63°
2026-05-07 19:48 55.91966 12.51607 33155 ft 470 kts 63°
2026-05-07 19:48 55.94794 12.62112 33148 ft 470 kts 63°
2026-05-07 19:49 55.97615 12.72633 33155 ft 470 kts 63°
2026-05-07 19:49 56.00401 12.83077 33147 ft 470 kts 64°
2026-05-07 19:50 56.03207 12.93643 33154 ft 470 kts 64°
2026-05-07 19:50 56.05957 13.04043 33153 ft 471 kts 64°
2026-05-07 19:51 56.08728 13.14575 33161 ft 471 kts 64°
2026-05-07 19:51 56.11509 13.25194 33161 ft 471 kts 64°
2026-05-07 19:52 56.14278 13.35819 33154 ft 471 kts 64°
2026-05-07 19:52 56.17043 13.46478 33162 ft 471 kts 64°